Location: Eastlake (historical)
(39.0077°N, 122.6678°W)
Time: 18:07:55
(UTC+00:00)

Cosmos 1777 Rocket - Pass Details

Date: 25 November 2020
Orbit: 757 x 777 km, 74.0° (Epoch: 22 January)

Event Time Altitude Azimuth Distance (km) Brightness Sun altitude
Exits shadow 13:20:28 40° 297° (WNW) 1,111 4.3 -20.0°
Drops below altitude 10° 13:25:15 10° 4° (N) 2,294 6.4 -19.1°
Sets 13:27:46 0° 12° (NNE) 3,225 7.2 -18.6°
